AirNav   Free Bose QuietComfort 20
 
 337 users online  

5NC3 Reed Mine Airport
Locust, North Carolina, USA

GOING TO LOCUST?


FAA INFORMATION EFFECTIVE 05 DECEMBER 2019

Location

FAA Identifier: 5NC3
Lat/Long: 35-17-57.7900N 080-27-28.2000W
35-17.963167N 080-27.470000W
35.2993861,-80.4578333
(estimated)
Elevation: 581 ft. / 177 m (estimated)
From city: 3 miles NNW of LOCUST, NC
Time zone: UTC -5 (UTC -4 during Daylight Saving Time)
Zip code: 28097

Airport Operations

Airport use: Private use. Permission required prior to landing
Activation date: 01/2018
Control tower: no
ARTCC: ATLANTA CENTER
FSS: RALEIGH FLIGHT SERVICE STATION
Attendance: 
Segmented circle: no

Airport Communications

WX AWOS-3 at JQF (13 nm NW): 133.675 (704-785-2145)
WX AWOS-3 at VUJ (17 nm NE): 128.175 (704-986-2097)
WX ASOS at EQY (19 nm SW): 135.775 (704-283-5185)

Nearby radio navigation aids

VOR radial/distance  VOR name  Freq  Var
CLTr080/25.1CHARLOTTE VOR/DME115.0005W
CTFr350/40.0CHESTERFIELD VOR/DME108.2003W

 
NDB name  Hdg/Dist  Freq  Var  ID
STONIA085/34.926006WGHJ --. .... .---
LANCASTER037/39.840007WLKR .-.. -.- .-.

Airport Services

Runway Information

Runway 3/21

Dimensions: 2000 x 75 ft. / 610 x 23 m
Surface: turf, in fair condition
RUNWAY 3  RUNWAY 21
Traffic pattern: leftleft

Airport Ownership and Management from official FAA records

Ownership: Privately-owned
Owner: CHRISTOPHER LOGAN
9659 WIDESPREAD AVE NW
CONCORD, NC 28027
Phone 704-773-1676
Manager: CHRISTOPHER LOGAN
9659 WIDESPREAD AVE NW
CONCORD, NC 28027
Phone 704-773-1676

Additional Remarks

FOR CD CTC ATLANTA ARTCC AT 770-210-7692.

Instrument Procedures

There are no published instrument procedures at 5NC3.

Some nearby airports with instrument procedures:

KJQF - Concord-Padgett Regional Airport (13 nm NW)
KVUJ - Stanly County Airport (17 nm NE)
KEQY - Charlotte-Monroe Executive Airport (19 nm SW)
KRUQ - Mid-Carolina Regional Airport (21 nm N)
KCLT - Charlotte/Douglas International Airport (25 nm W)
 
Loc | Ops | Rwys | IFR | FBO | Links
Com | Nav | Svcs | Stats | Notes
Aerial photo
No photo
 
Airport distance calculator
Flying to Reed Mine Airport? Find the distance to fly.

From to 5NC3

Sunrise and sunset
Times for 10-Dec-2019
 Local
(UTC-5)
 Zulu
(UTC)
Morning civil twilight06:5311:53
Sunrise07:2112:21
Sunset17:0922:09
Evening civil twilight17:3722:37

Current date and time
Zulu (UTC)  10-Dec-2019 10:33:37
Local (UTC-5)  10-Dec-2019 05:33:37
 
METAR
KJQF 
14nm W 
101015Z AUTO 20005KT 4SM BR OVC004 12/11 A2999 RMK AO2
KVUJ 
17nm NE 
101015Z AUTO 23004KT 1/2SM FG 13/13 A3002 RMK AO2 T01290129
KEQY 
19nm SW 
100953Z AUTO 23005KT 1/4SM FG VV002 10/09 A2998 RMK AO2 SLP164 T01000094 $
KRUQ 
21nm N 
101015Z AUTO 21009KT 4SM BR OVC003 12/12 A2995 RMK AO2 T01200117
KCLT 
25nm W 
101010Z 23008KT 3SM BR OVC002 12/11 A2998 RMK AO2 T01220111
KAFP 
25nm SE 
101015Z AUTO 10SM 17/15 A2998 RMK AO2 T01670150
TAF
KCLT 
25nm W 
101004Z 1010/1112 22004KT 2SM BR OVC002 TEMPO 1011/1014 3/4SM BR VV002 FM101500 20010KT 6SM BR VCSH OVC004 FM101800 23009KT P6SM -SHRA OVC011 PROB30 1019/1021 2SM -RA BR OVC007 FM102100 30006KT P6SM -RA OVC021 FM110100 02008KT 5SM RA BR BKN012 OVC020
NOTAMs
Click for the latest NOTAMs
NOTAMs are issued by the DoD/FAA and will open in a separate window not controlled by AirNav.

 

 
 

Would you like to see your business listed on this page?

 If your business provides an interesting product or service to pilots, flight crews, aircraft, or users of the Reed Mine Airport, you should consider listing it here.  To start the listing process, click on the button below
 
Add a business
 

Other Pages about Reed Mine Airport

Update a link
 
Copyright © AirNav, LLC. All rights reserved. Privacy Policy  Contact